User: anonymous   Login
Location: Killam
(52.7910°N, 111.8608°W)
Time: 11:06:47
(UTC+00:00)
Language:

NOAA 19 - Orbit

View from above orbital plane
View from above orbital plane
View from above satellite
View from above satellite

Ground track
Ground track

The orbit is defined by the following mean orbital elements,

1 33591U          26073.90284095 +.00000000 +00000-0 +43563-4 0 00004
2 33591  98.9597 144.6825 0012748 298.8825  61.1068 14.13457729    09
Epoch (UTC): 14 March 2026 21:40:05
Eccentricity: 0.0012748
inclination: 98.9597°
perigee height: 838 km
apogee height: 857 km
right ascension of ascending node: 144.6825°
argument of perigee: 298.8825°
revolutions per day: 14.13457729
mean anomaly at epoch: 61.1068°

The dashed part of the orbit path shows where the satellite is in the earth's shadow,  

DLR